Location: *
(45.5667°S, 177.5167°W)
Time: 15:18:02
(UTC+00:00)

Cosmos 967 Rocket - Pass Details

Date: 29 May 2022
Orbit: 944 x 993 km, 65.8° (Epoch: 28 June)

Event Time Altitude Azimuth Distance (km) Brightness Sun altitude
Rises 06:10:35 0° 325° (NW) 3,619 8.2 -19.2°
Reaches altitude 10° 06:13:07 10° 324° (NW) 2,676 7.4 -19.6°
Maximum altitude 06:19:22 83° 236° (SW) 968 4.5 -20.7°
Enters shadow 06:23:16 25° 149° (SSE) 1,833 5.6 -21.4°
